Location: Caltech
(34.1382°N, 118.1253°W)
Time: 12:28:17
(UTC-07:00)

Meteor 2-4 Rocket - Visible Passes

Search period start: 22 May 2017 00:00
Search period end: 01 June 2017 00:00
Orbit: 800 x 908 km, 81.2° (Epoch: 21 May)

Date Brightness Start Highest point End Pass type
(mag) Time Alt. Az. Time Alt. Az. Time Alt. Az.
22 May 3.8 21:49:08 18° SSW 21:53:24 78° W 21:59:09 10° N visible
23 May 3.7 21:37:07 12° S 21:42:23 84° W 21:48:09 10° N visible
24 May 3.7 21:25:47 10° S 21:31:22 89° WNW 21:37:09 10° N visible
25 May 3.7 21:14:45 10° S 21:20:21 85° E 21:26:09 10° N visible
25 May 6.7 23:03:53 10° WNW 23:04:06 10° WNW 23:04:19 10° WNW visible
26 May 3.7 21:03:44 10° S 21:09:20 80° E 21:15:08 10° N visible
26 May 6.6 22:51:31 10° W 22:53:02 11° WNW 22:54:33 10° NW visible
27 May 3.7 20:52:44 10° S 20:58:19 75° E 21:04:07 10° NNE visible
27 May 6.6 22:39:51 10° W 22:41:57 12° WNW 22:44:05 10° NW visible
28 May 3.7 20:41:44 10° S 20:47:19 70° E 20:53:05 10° NNE visible
28 May 6.5 22:28:20 10° W 22:30:53 13° WNW 22:33:27 10° NW visible
29 May 3.8 20:30:44 10° S 20:36:19 65° E 20:42:04 10° NNE visible
29 May 6.5 22:16:55 10° W 22:19:49 14° WNW 22:22:46 10° NW visible
30 May 3.9 20:19:45 10° S 20:25:18 60° E 20:31:02 10° NNE visible
30 May 6.5 22:05:32 10° WSW 22:08:45 15° WNW 22:12:02 10° NW visible
31 May 6.5 21:54:12 10° WSW 21:57:41 16° WNW 22:01:15 10° NNW visible
